Flag Weather past 2 weeks in Eindhoven, Netherlands

Now
46 °F

Overcast.


Feels Like: 44 °F
Forecast: 41 / 50 °F
Wind: 6 mph from Southeast

Location: Eindhoven Airport

Current Time: Nov 27, 2014 at 12:03:01 PM

Latest Report: Nov 27, 2014 at 11:25 AM


Visibility: N/A

Pressure: 29.74 "Hg

Humidity: 82%

Dew point: 41 °F

Location of EindhovenLocation

Historic Weather in Eindhoven — Graph

°F

Eindhoven temperature yesterday

Maximum temperature yesterday: 45 °F (at 1:25 PM)
Minimum temperature yesterday: 41 °F (at 12:25 AM)
Average temperature yesterday: 43 °F

Past Weeks' High & Low Weather Summary

 TemperatureHumidityPressure
High59 °F (Nov 23, 1:55 PM)100% (Nov 12, 6:55 PM)30.33 "Hg (Nov 12, 6:55 PM)
Low30 °F (Nov 25, 12:55 AM)58% (Nov 24, 3:25 PM)29.50 "Hg (Nov 15, 12:55 PM)
Average46 °F89%29.92 "Hg
* Reported Nov 12 10:25 AM — Nov 27 10:55 AM, Eindhoven, Weather by CustomWeather, © 2014

Note: Actual official high and low records may vary slightly from our data, if they occured in-between our weather recording intervals... More about our weather records

Advertising

Eindhoven weather history for previous 24 hours

 ConditionsComfort  
Time TempWeatherWind HumidityBarometerVisibility
10:55 AM
Nov 27
46 °FMostly cloudy.7 mph82%29.74 "HgN/A
10:25 AM45 °FOvercast.6 mph87%29.77 "HgN/A
9:59 AM45 °FOvercast.7 mph87%29.77 "HgN/A
9:25 AM45 °FFog.7 mph87%29.77 "Hg6 mi
8:55 AM45 °FFog.6 mph87%29.77 "Hg6 mi
8:25 AM45 °FFog.6 mph87%29.77 "Hg6 mi
7:57 AM45 °FFog.7 mph87%29.77 "Hg5 mi
7:55 AM45 °FFog.7 mph87%29.77 "Hg5 mi
7:25 AM45 °FPassing clouds.7 mph87%29.77 "HgN/A
6:55 AM45 °FMostly cloudy.7 mph87%29.77 "HgN/A
6:25 AM45 °FOvercast.6 mph87%29.77 "HgN/A
5:55 AM45 °FMostly cloudy.8 mph87%29.77 "HgN/A
5:25 AM45 °FMostly cloudy.6 mph87%29.77 "HgN/A
4:59 AM45 °FMostly cloudy.6 mph87%29.77 "HgN/A
4:55 AM45 °FOvercast.5 mph87%29.77 "HgN/A
4:25 AM45 °FOvercast.5 mph87%29.77 "HgN/A
3:55 AM45 °FOvercast.6 mph87%29.80 "HgN/A
3:25 AM45 °FOvercast.6 mph87%29.80 "HgN/A
2:55 AM45 °FOvercast.7 mph87%29.80 "HgN/A
2:25 AM45 °FOvercast.7 mph87%29.80 "HgN/A
1:55 AM45 °FFog.7 mph87%29.80 "Hg6 mi
1:25 AM45 °FFog.7 mph87%29.83 "Hg6 mi
12:55 AM45 °FFog.7 mph87%29.83 "Hg6 mi
12:25 AM45 °FFog.7 mph87%29.83 "Hg6 mi
11:55 PM
Nov 26
45 °FFog.6 mph87%29.83 "Hg6 mi
11:25 PM45 °FFog.7 mph87%29.86 "Hg6 mi
10:55 PM45 °FFog.8 mph87%29.86 "Hg5 mi
10:25 PM45 °FFog.7 mph87%29.86 "Hg5 mi
9:55 PM43 °FFog.8 mph93%29.86 "Hg5 mi
9:25 PM43 °FFog.7 mph93%29.86 "Hg5 mi
8:55 PM43 °FFog.7 mph93%29.86 "Hg4 mi
8:25 PM43 °FFog.8 mph93%29.86 "Hg4 mi
7:55 PM43 °FFog.7 mph93%29.86 "Hg4 mi
7:25 PM43 °FFog.7 mph93%29.86 "Hg4 mi
6:55 PM43 °FFog.7 mph93%29.89 "Hg4 mi
6:25 PM43 °FPassing clouds.7 mph93%29.89 "Hg2 mi
5:55 PM43 °FFog.8 mph87%29.89 "Hg5 mi
5:25 PM43 °FFog.9 mph87%29.89 "Hg5 mi
4:55 PM43 °FFog.6 mph87%29.89 "Hg6 mi
4:25 PM43 °FFog.8 mph87%29.89 "Hg6 mi
4:03 PM45 °FDrizzle. Overcast.9 mph81%29.89 "Hg4 mi
3:55 PM45 °FOvercast.8 mph81%29.89 "Hg6 mi
3:25 PM45 °FDrizzle. Overcast.9 mph81%29.89 "Hg6 mi
2:55 PM45 °FOvercast.10 mph76%29.89 "HgN/A
2:25 PM45 °FOvercast.8 mph76%29.92 "HgN/A
1:55 PM45 °FOvercast.7 mph76%29.92 "HgN/A
1:25 PM45 °FOvercast.8 mph76%29.92 "HgN/A
12:55 PM43 °FOvercast.8 mph81%29.92 "HgN/A
12:25 PM43 °FMore clouds than sun.8 mph81%29.95 "HgN/A
Weather by CustomWeather, © 2014

See weather overviewHow to use our weather pages